Probability
0 0 0 0 0 0 0 0 0 0 0 0 0 0 1 2 3 5 6 6 5 4 2 1 0 0 0 0 0 0 0 0 0 0 0 0 0 0 0 0 0 0 0 0
0 0 0 0 0 0 0 0 0 0 0 0 0 0 0 1 3 4 4 5 5 4 3 1 0 0 0 0 0 0 0 0 0 0 0 0 0 0 0 0 0 0 0 0
0 0 0 0 0 0 0 0 0 0 0 0 0 0 0 1 1 2 2 2 3 4 3 1 0 0 0 0 0 0 0 0 0 0 0 0 0 0 0 0 0 0 0 0
0 0 0 0 0 0 0 0 0 0 0 0 0 0 0 0 0 0 0 1 2 3 2 1 0 1 1 1 0 0 0 0 0 0 0 0 0 0 0 0 0 0 0 0
0 0 0 0 0 0 0 0 0 0 0 0 0 0 0 0 0 0 0 1 2 2 1 0 0 1 2 1 0 0 0 0 0 0 0 0 0 0 0 0 0 0 0 0
0 0 0 0 0 0 0 0 0 0 0 0 0 0 0 0 1 1 0 0 1 1 0 0 0 1 2 1 0 0 0 0 0 0 0 0 0 0 0 0 0 0 0 0
0 0 0 0 0 0 0 0 0 0 0 0 0 0 0 0 1 1 1 1 0 0 0 0 1 2 2 1 0 0 0 0 0 0 0 0 0 0 0 0 0 0 0 0
0 0 0 0 0 0 0 0 0 0 0 0 0 0 0 0 1 2 2 1 0 0 1 1 1 2 2 1 1 1 1 1 1 0 0 0 0 0 0 0 0 0 0 0
0 0 0 0 0 0 0 0 0 0 0 0 0 0 1 1 2 2 1 0 0 0 1 1 1 1 1 1 1 2 2 2 1 0 0 0 0 0 0 0 0 0 0 0
0 0 0 0 0 0 0 0 0 0 0 0 0 1 2 3 2 1 0 0 0 0 1 1 0 0 0 0 1 2 1 1 1 0 0 0 0 0 0 0 0 0 0 0
0 0 0 0 0 0 0 0 0 0 0 0 0 1 2 2 2 1 0 0 0 0 0 0 0 0 0 0 0 0 0 0 0 0 0 0 0 0 0 0 0 0 0 0
0 0 0 0 0 0 0 0 0 0 0 0 0 0 1 1 1 0 0 0 0 0 0 0 0 0 0 0 0 0 0 0 0 0 0 0 0 0 0 0 0 0 0 0
0 0 0 0 0 0 0 0 0 0 0 0 0 0 0 0 0 0 0 0 0 0 0 0 0 0 0 0 0 0 0 0 0 0 0 0 0 0 0 0 0 0 0 0
0 0 0 0 0 0 0 0 0 0 0 0 0 0 0 0 0 0 0 0 0 0 0 0 0 0 0 0 0 0 0 0 0 0 0 0 0 0 0 0 0 0 0 0
0 0 0 0 0 0 0 0 0 0 0 0 0 0 0 0 0 0 0 0 0 0 0 0 0 0 0 0 0 0 0 0 0 0 0 0 0 0 0 0 0 0 0 0
0 0 0 0 0 0 0 0 0 0 0 0 0 0 0 0 0 0 0 0 0 0 0 0 0 0 0 0 0 0 0 0 0 0 0 0 0 0 0 0 0 0 0 0
0 0 0 0 0 0 0 0 0 0 0 0 0 0 0 0 0 0 0 0 0 0 0 0 0 0 0 0 0 0 0 0 0 0 0 0 0 0 0 0 0 0 0 0
0 0 0 0 0 0 0 0 0 0 0 0 0 0 0 0 0 0 0 0 0 0 0 0 0 0 0 0 0 0 0 0 0 0 0 0 0 0 0 0 0 0 0 0
0 0 0 0 0 0 0 0 0 0 0 0 0 0 0 0 0 0 0 0 0 0 0 0 0 0 0 0 0 0 0 0 0 0 0 0 0 0 0 0 0 0 0 0
0 0 0 0 0 0 0 0 0 0 0 0 0 0 0 0 0 0 0 0 0 0 0 0 0 0 0 0 0 0 0 0 0 0 0 0 0 0 0 0 0 0 0 0
0 0 0 0 0 0 0 0 0 0 0 0 0 0 0 0 0 0 0 0 0 0 0 0 0 0 0 0 0 0 0 0 0 0 0 0 0 0 0 0 0 0 0 0
0 0 0 0 0 0 0 0 0 0 0 0 0 0 0 0 0 0 0 0 0 0 0 0 0 0 0 0 0 0 0 0 0 0 0 0 0 0 0 0 0 0 0 0
0 0 0 0 0 0 0 0 0 0 0 0 0 0 0 0 0 0 0 0 0 0 0 0 0 0 0 0 0 0 0 0 0 0 0 0 0 0 0 0 0 0 0 0
0 0 0 0 0 0 0 0 0 0 0 0 0 0 0 0 0 0 0 0 0 0 0 0 0 0 0 0 0 0 0 0 0 0 0 0 0 0 0 0 0 0 0 0
0 0 0 0 0 0 0 0 0 0 0 0 0 0 0 0 0 0 0 0 0 0 0 0 0 0 0 0 0 0 0 0 0 0 0 0 0 0 0 0 0 0 0 0
0 0 0 0 0 0 0 0 0 0 0 0 0 0 0 0 0 0 0 0 0 0 0 0 0 0 0 0 0 0 0 0 0 0 0 0 0 0 0 0 0 0 0 0
0 0 0 0 0 0 0 0 0 0 0 0 0 0 0 0 0 0 0 0 0 0 0 0 0 0 0 0 0 0 0 0 0 0 0 0 0 0 0 0 0 0 0 0
Wind_Speed
6 6 7 8 10 11 11 10 7 6 5 4 5 5 7 9 9 10 11 11 12 11 10 10 10 9 8 8 8 8 7 6 5 5 5 4 4 3 2 2 3 3 3 4
7 8 8 8 9 10 10 10 10 9 7 4 4 5 6 8 9 11 11 11 12 12 11 11 11 11 10 9 8 8 8 6 5 5 5 5 4 3 3 2 3 3 3 4
6 5 6 8 9 10 10 9 9 9 6 3 4 5 6 7 8 10 11 11 12 12 12 11 11 11 11 10 9 9 8 7 7 6 6 5 5 4 3 3 3 3 2 3
4 5 7 5 4 5 7 7 7 6 4 3 3 4 5 6 8 8 9 10 11 11 11 10 10 10 10 9 9 9 8 8 7 7 6 5 5 4 3 3 3 2 2 2
4 6 7 6 4 4 5 5 6 5 5 4 3 3 3 5 8 9 9 9 9 9 10 10 10 11 11 10 9 9 9 9 8 8 7 6 5 4 3 3 3 2 2 2
5 5 4 2 1 1 3 3 4 3 3 3 4 3 2 4 7 7 7 7 8 8 9 10 10 11 11 11 10 9 9 9 8 8 8 7 6 4 3 3 3 2 2 2
7 6 5 2 1 1 2 1 3 4 2 1 1 2 3 4 6 6 6 7 7 8 8 8 10 11 11 10 10 9 8 8 8 8 7 7 5 4 4 3 3 2 2 2
7 6 3 1 0 1 3 4 5 5 5 5 5 4 4 5 5 6 6 7 7 7 6 7 9 10 10 9 9 9 9 8 8 8 7 7 6 5 4 4 4 3 3 2
3 1 3 2 2 4 4 4 5 5 5 4 3 3 3 4 4 5 6 6 6 6 6 6 7 8 9 8 9 10 9 8 8 8 6 6 6 5 4 4 4 3 3 3
3 2 3 2 2 3 3 3 4 4 3 2 1 1 2 3 4 4 4 5 5 6 6 6 7 7 7 8 10 11 10 9 8 8 7 7 5 5 4 4 4 3 3 3
4 1 1 1 3 4 3 3 3 2 2 1 0 1 1 3 4 5 5 5 5 6 6 6 6 7 7 9 10 10 10 9 8 7 7 6 5 5 5 4 5 5 4 3
2 2 2 2 3 3 3 3 3 3 3 2 1 1 1 2 3 4 5 5 5 5 5 6 7 7 7 8 9 9 9 8 6 6 5 5 5 4 4 5 7 8 7 5
3 3 3 4 5 5 4 4 3 2 2 2 1 1 1 2 3 4 4 5 5 6 6 6 6 7 8 8 9 9 8 8 6 6 6 6 5 5 4 3 5 6 8 8
2 2 2 3 3 3 3 3 3 3 2 2 1 1 1 1 2 3 4 4 4 5 6 6 6 7 7 8 8 8 8 8 7 6 6 6 6 5 5 5 4 4 6 10
3 2 1 2 2 2 3 3 2 2 2 2 1 1 1 1 2 2 3 3 4 4 5 6 6 6 7 7 8 8 6 5 6 5 5 5 5 5 5 6 5 4 3 5
3 2 1 1 1 2 2 3 3 2 2 2 1 1 1 1 1 2 2 3 4 5 5 6 6 5 6 7 7 6 5 8 7 5 5 5 5 5 5 5 5 5 5 5
2 2 2 2 2 2 2 2 3 3 2 2 2 2 1 0 1 2 2 3 3 3 3 4 4 4 5 6 6 5 4 6 8 6 5 5 5 5 5 5 5 5 5 6
3 3 3 3 2 2 3 3 3 3 3 3 2 2 1 1 2 2 2 2 2 2 3 3 3 4 5 5 5 4 4 4 5 5 4 4 4 4 4 5 5 5 3 4
3 4 4 4 4 3 3 3 3 3 3 3 2 2 1 2 1 1 1 1 2 3 3 3 4 5 5 5 5 3 4 4 4 4 4 5 5 4 4 4 4 4 4 3
3 3 4 4 4 3 3 3 3 3 3 3 3 2 2 2 2 1 0 1 2 2 2 2 3 4 4 5 5 4 4 5 5 5 4 4 5 5 4 5 5 5 4 4
2 3 3 3 3 3 3 3 2 3 3 3 2 2 2 3 2 2 1 1 1 1 1 3 3 2 3 3 5 4 4 4 5 5 5 5 5 5 5 5 4 4 4 4
2 2 3 3 3 3 3 3 3 3 3 3 3 2 3 3 3 2 2 1 1 1 1 1 2 2 2 3 4 4 4 5 4 4 4 4 4 5 5 4 4 4 4 3
2 2 2 2 3 3 3 3 3 3 3 3 3 3 3 3 2 2 2 1 1 1 1 2 3 3 4 3 3 4 4 4 4 4 4 4 4 4 4 4 4 4 3 3
2 2 2 2 2 2 3 3 3 3 3 3 3 3 3 2 2 2 2 1 1 2 2 2 4 5 5 4 4 4 4 4 4 3 3 3 3 4 4 4 4 3 3 4
2 2 2 3 3 2 3 3 3 3 3 2 3 3 3 2 2 2 2 2 2 2 2 3 4 5 5 4 3 3 3 3 3 3 3 3 3 4 4 3 3 3 3 3
2 2 2 2 2 2 2 2 2 2 2 2 2 3 3 2 2 2 2 2 3 2 2 2 2 3 3 3 2 3 3 3 3 3 3 3 4 3 3 3 4 3 3 3
1 1 1 1 2 2 2 2 2 2 2 2 2 3 3 3 2 2 3 2 3 2 2 2 2 2 2 2 2 3 3 2 2 2 3 3 2 2 3 3 2 2 2 2
Wind_Direction
248 242 239 225 224 224 231 243 251 251 246 214 178 176 166 164 162 162 166 166 165 168 167 166 169 168 162 157 156 157 157 161 162 145 134 124 116 112 94 84 86 81 77 72
263 257 246 242 237 231 232 239 253 255 251 218 186 178 169 171 168 170 169 174 171 172 169 173 175 172 163 161 163 161 163 163 146 137 132 131 133 129 112 91 77 70 72 75
272 263 250 244 238 234 232 231 239 251 249 218 187 179 181 174 173 176 172 175 174 176 175 178 180 173 166 165 164 165 162 152 145 143 140 141 140 124 122 118 98 88 86 89
266 270 253 256 228 225 237 244 245 252 249 230 207 180 177 171 172 175 175 176 176 177 174 176 174 165 161 161 165 164 159 152 151 147 145 143 138 142 152 140 126 125 117 117
256 262 263 258 226 207 225 250 254 252 252 232 201 166 184 182 173 176 176 174 174 176 170 172 169 163 161 165 166 163 160 158 157 154 151 149 151 157 156 142 141 148 154 150
250 258 266 294 349 225 234 265 301 272 253 219 180 185 185 167 159 161 163 162 164 165 166 169 165 159 162 167 168 167 161 159 157 153 152 157 160 158 149 146 152 159 164 171
246 251 259 300 349 245 205 344 348 357 11 359 120 109 109 117 137 146 148 149 152 159 164 165 159 158 166 170 171 161 153 151 151 151 154 156 155 153 154 157 162 176 176 186
233 240 248 73 226 26 32 22 23 28 28 41 57 64 83 105 124 139 141 143 150 156 158 157 157 162 169 170 159 148 147 148 152 153 161 159 155 163 168 165 172 187 193 204
222 178 100 97 54 40 24 13 21 29 32 40 55 62 80 111 125 136 142 149 152 153 154 156 160 164 170 160 148 147 149 153 156 158 160 157 161 170 173 174 181 195 195 199
232 175 118 109 55 37 27 18 18 17 17 22 34 61 109 123 130 138 145 151 154 156 161 166 166 165 161 150 151 152 157 162 164 166 167 168 171 176 178 185 189 194 198 203
260 285 38 40 44 31 20 10 5 8 359 343 14 127 135 143 146 154 158 159 162 168 171 172 166 165 157 154 156 161 165 169 173 173 172 174 175 181 187 192 188 188 199 197
284 328 320 14 35 27 19 9 6 6 3 360 59 113 122 136 138 145 154 158 166 171 172 174 173 172 165 162 165 169 173 176 176 173 172 173 172 180 193 191 187 190 193 195
330 349 15 30 29 20 13 0 2 8 11 6 23 80 112 120 130 141 155 169 175 176 177 177 173 173 171 169 175 180 180 176 173 176 178 179 179 182 189 210 215 212 209 207
9 30 27 15 3 360 355 354 357 358 1 9 17 29 84 122 146 159 172 178 175 170 174 179 179 180 176 174 179 185 182 181 177 179 181 184 187 190 190 191 203 223 224 220
333 342 344 2 2 355 350 347 337 333 338 350 8 23 97 160 180 178 165 162 164 172 180 183 185 182 172 174 181 187 184 179 177 177 181 187 189 192 198 203 206 206 201 215
296 315 318 312 307 312 319 319 312 312 324 332 330 321 296 191 177 168 163 163 178 190 188 185 188 179 168 173 181 186 187 182 178 180 185 191 193 197 202 206 209 209 207 207
284 288 292 285 288 301 309 310 309 312 315 318 326 327 316 253 185 183 181 178 187 192 180 177 175 168 171 177 181 184 182 183 184 188 194 198 198 202 205 209 214 217 215 206
346 337 329 327 324 319 313 316 321 325 332 335 337 326 293 252 231 208 191 178 172 171 175 177 173 176 178 178 183 183 185 189 191 195 197 200 202 205 208 212 217 222 221 212
5 354 353 349 347 341 339 341 342 340 339 336 326 316 313 300 286 251 178 172 183 193 193 176 185 183 175 178 181 180 188 195 200 203 200 204 208 210 210 213 217 219 217 212
7 1 355 355 357 353 347 346 348 344 343 341 334 332 332 325 320 307 250 214 206 201 179 168 182 188 182 180 181 189 197 202 203 203 204 206 210 213 214 216 217 219 220 220
8 3 0 2 359 355 345 340 340 337 341 339 334 330 323 316 310 295 249 233 227 155 184 190 186 179 178 189 193 200 202 206 207 207 207 208 213 216 219 222 222 221 221 223
9 3 360 359 356 351 351 352 343 337 336 334 336 334 329 323 319 311 293 229 171 154 189 195 182 178 198 204 206 209 208 210 213 211 210 211 215 219 223 225 225 225 224 224
10 2 356 350 348 349 351 353 349 347 345 342 340 337 331 318 309 302 300 310 134 183 209 206 199 207 224 217 217 219 218 217 216 214 213 215 219 223 227 230 230 229 229 230
5 359 351 342 336 341 347 355 349 342 341 336 331 329 324 319 318 319 321 311 290 265 250 214 211 224 227 227 222 222 222 221 218 217 217 220 223 226 227 228 229 231 234 238
345 342 346 346 343 345 343 338 334 335 334 330 326 327 323 322 315 322 323 311 297 277 256 223 223 232 235 234 226 226 227 227 229 227 224 225 225 226 228 227 228 231 232 234
340 339 336 328 329 323 320 320 315 317 317 324 332 338 337 332 323 318 310 300 302 295 270 242 226 229 241 245 238 241 238 231 228 225 227 229 228 226 227 229 234 233 235 236
316 313 309 307 313 315 316 317 317 320 328 335 335 336 328 319 318 322 321 314 310 304 286 267 252 248 249 246 247 250 252 249 239 231 228 227 225 222 221 226 228 230 234 239